Location: Aufkirchen
(47.9603°N, 11.3653°E)
Time: 17:30:34
(UTC+01:00)

Transit 2A - Pass Details

Date: 05 December 2020
Orbit: 599 x 960 km, 66.7° (Epoch: 26 January)

Event Time Altitude Azimuth Distance (km) Brightness Sun altitude
Rises 21:41:51 0° 322° (NW) 3,413 9.9 -51.7°
Enters shadow 21:42:40 - 326° (NW) 3,175 9.7 -51.9°
Reaches altitude 10° 21:45:55 10° 349° (N) 2,386 - -52.3°
Maximum altitude 21:48:25 13° 17° (NNE) 2,118 - -52.7°
Drops below altitude 10° 21:50:49 10° 45° (NE) 2,269 - -53.0°
Sets 21:54:28 0° 73° (ENE) 3,101 - -53.6°
